Starlink 4341

operational
NORAD ID: 53052 Int'l Des: 2022-077 Owner: SPXS Country: US Constellation: starlink
LEOCIRCULARRETROGRADESSO

Über Starlink 4341

Beschreibung wird geladen...

Live-Position

3D-Globus wird geladen...

Nächste Überflüge

Höhenverlauf

Altitude vs Time

uPlot chart will show altitude changes over time

Zweizeiliger Elementsatz

1 53052U 22077K 26034.03912194 .00000747 00000-0 62734-4 0 9991
2 53052 97.6032 216.3019 0002592 66.7039 293.4457 15.01252084195710
Epoch: 3. Feb. 2026 • Age: 8 hours

Aktueller Status

Höhe 573.9 km
Geschwindigkeit 7.58 km/s
Subsatellitenpunkt 70.68°N, 144.09°E
Startdatum 11. Juli 2022
Alter 3.5 years
Typ internet

Technische Details

Klassifizierung Payload
Masse 297.00 kg
Trockenmasse 275.00 kg
Gesamtmasse 297.00 kg
Länge 0.20 m
Durchmesser 2.80 m
Spannweite 9.00 m
Form Box + pan
Hersteller SPXS
Bus-Typ Starlink
Phasenstatus In Orbit
Besitzer/Staat SPXS/US

Große Konstellationen

Loading constellations...